Austin, TX

12:03 AM CST on February 25, 2017 (GMT -0600)
Austin Bergstrom International

Weather History for KAUS - January, 2014

Change the Weather History Date:

Tuesday, January 21, 2014

  Actual Average Record
Temperature  
Mean Temperature 46 °F 49 °F  
Max Temperature 62 °F 62 °F 84 °F (2017)
Min Temperature 30 °F 37 °F 17 °F (1985)
Degree Days  
Heating Degree Days 19 16  
Month to date heating degree days 358 336  
Since 1 July heating degree days 1227 1083  
Cooling Degree Days 0 0  
Month to date cooling degree days 0 0  
Year to date cooling degree days 0 0  
Moisture  
Dew Point 24 °F    
Average Humidity 50    
Maximum Humidity 78    
Minimum Humidity 22    
Precipitation  
Precipitation 0.00 in 0.07 in 4.77 in (1965)
Month to date precipitation 0.41 1.55  
Year to date precipitation 0.41 1.55  
Snow  
Snow 0.00 in - - ()
Month to date snowfall 0.0  
Since 1 July snowfall T  
Snow Depth 0.00 in    
Sea Level Pressure  
Sea Level Pressure 30.31 in    
Wind  
Wind Speed 10 mph (North)    
Max Wind Speed 24 mph    
Max Gust Speed 32 mph    
Visibility 10 miles    
Events      
T = Trace of Precipitation, MM = Missing Value Source: NWS Daily Summary

Daily Weather History Graph

Daily Weather History Graph

Search for Another Location

Airport or City:

Trip Planner

Search our weather history database for the weather conditions in past years. The results will help you decide how hot, cold, wet, or windy it might be!

Date:

Astronomy

Jan. 21, 2014 Rise Set
Actual Time 7:26 AM CST 5:58 PM CST
Civil Twilight 7:00 AM CST 6:23 PM CST
Nautical Twilight 6:31 AM CST 6:52 PM CST
Astronomical Twilight 6:02 AM CST 7:21 PM CST
Moon 11:05 PM CST (1/21) 10:21 AM CST (1/21)
Length of Visible Light 11h 23m
Length of Day
10h 31m
Waning Gibbous, 74% of the Moon is Illuminated
Jan 21
Waning Gibbous
Jan 23
Last Quarter
Jan 30
New
Feb 6
First Quarter
Feb 14
Full

Hourly Weather History & Observations

Time (CST) Temp. Windchill Dew Point Humidity Pressure Visibility Wind Dir Wind Speed Gust Speed Precip Events Conditions
12:53 AM 57.0 °F - 28.0 °F 33% 30.18 in 10.0 mi North 17.3 mph 27.6 mph N/A   Clear
1:53 AM 57.0 °F - 27.0 °F 32% 30.20 in 10.0 mi North 18.4 mph 27.6 mph N/A   Clear
2:53 AM 54.0 °F - 25.0 °F 33% 30.24 in 10.0 mi North 18.4 mph 28.8 mph N/A   Clear
3:53 AM 52.0 °F - 24.1 °F 34% 30.27 in 10.0 mi North 15.0 mph - N/A   Clear
4:53 AM 51.1 °F - 24.1 °F 35% 30.28 in 10.0 mi North 16.1 mph - N/A   Clear
5:53 AM 50.0 °F - 24.1 °F 36% 30.32 in 10.0 mi NNW 13.8 mph 20.7 mph N/A   Clear
6:53 AM 46.9 °F - 24.1 °F 41% 30.35 in 10.0 mi North 12.7 mph - N/A   Partly Cloudy
7:53 AM 46.9 °F - 23.0 °F 39% 30.38 in 10.0 mi North 12.7 mph - N/A   Partly Cloudy
8:53 AM 50.0 °F - 23.0 °F 35% 30.40 in 10.0 mi North 12.7 mph - N/A   Partly Cloudy
9:53 AM 53.1 °F - 24.1 °F 32% 30.42 in 10.0 mi North 15.0 mph 25.3 mph N/A   Partly Cloudy
10:53 AM 55.0 °F - 25.0 °F 31% 30.41 in 10.0 mi North 15.0 mph - N/A   Partly Cloudy
11:53 AM 57.0 °F - 25.0 °F 29% 30.40 in 10.0 mi NNE 17.3 mph 23.0 mph N/A   Partly Cloudy
12:53 PM 59.0 °F - 25.0 °F 27% 30.35 in 10.0 mi NNW 12.7 mph 20.7 mph N/A   Partly Cloudy
1:53 PM 60.1 °F - 23.0 °F 24% 30.32 in 10.0 mi NNE 12.7 mph 18.4 mph N/A   Partly Cloudy
2:53 PM 61.0 °F - 23.0 °F 23% 30.31 in 10.0 mi North 11.5 mph - N/A   Partly Cloudy
3:53 PM 61.0 °F - 23.0 °F 23% 30.30 in 10.0 mi North 8.1 mph - N/A   Partly Cloudy
4:53 PM 60.1 °F - 21.9 °F 23% 30.28 in 10.0 mi North 6.9 mph - N/A   Clear
5:53 PM 50.0 °F - 24.1 °F 36% 30.29 in 10.0 mi Calm Calm - N/A   Partly Cloudy
6:53 PM 42.1 °F - 24.1 °F 49% 30.29 in 10.0 mi Calm Calm - N/A   Partly Cloudy
7:53 PM 37.0 °F - 26.1 °F 65% 30.30 in 10.0 mi Calm Calm - N/A   Partly Cloudy
8:53 PM 33.1 °F - 25.0 °F 72% 30.28 in 10.0 mi Calm Calm - N/A   Clear
9:53 PM 30.9 °F - 25.0 °F 79% 30.27 in 10.0 mi Calm Calm - N/A   Clear
10:53 PM 33.1 °F 28.7 °F 27.0 °F 78% 30.26 in 10.0 mi WSW 4.6 mph - N/A   Clear
11:53 PM 34.0 °F 31.0 °F 26.1 °F 73% 30.24 in 10.0 mi WSW 3.5 mph - N/A   Clear